Weather History for KOEB - January, 2013

Change the Weather History Date:

Wednesday, January 23, 2013

  Actual Average (KJYM) Record (KJYM)
Temperature  
Mean Temperature 11 °F -  
Max Temperature 17 °F 32 °F 59 °F (1967)
Min Temperature 5 °F 16 °F -10 °F (1963)
Degree Days  
Heating Degree Days 54    
Moisture  
Dew Point 5 °F    
Average Humidity 76    
Maximum Humidity 88    
Minimum Humidity 58    
Precipitation  
Precipitation 0.00 in - - ()
Sea Level Pressure  
Sea Level Pressure 30.15 in    
Wind  
Wind Speed 7 mph (WSW)    
Max Wind Speed 20 mph    
Max Gust Speed 24 mph    
Visibility 6 miles    
Events Snow    
Averages and records for this station are not official NWS values.
T = Trace of Precipitation, MM = Missing Value Source: NWS Daily Summary

Daily Weather History Graph

Daily Weather History Graph

Search for Another Location

Airport or City:

Trip Planner

Search our weather history database for the weather conditions in past years. The results will help you decide how hot, cold, wet, or windy it might be!

Date:

Astronomy

Jan. 23, 2013 Rise Set
Actual Time 8:00 AM EST 5:44 PM EST
Civil Twilight 7:30 AM EST 6:14 PM EST
Nautical Twilight 6:56 AM EST 6:48 PM EST
Astronomical Twilight 6:23 AM EST 7:21 PM EST
Moon 2:53 PM EST (1/23) 5:12 AM EST (1/23)
Length of Visible Light 10h 43m
Length of Day
9h 43m
Waxing Gibbous, 89% of the Moon is Illuminated
Jan 23
Waxing Gibbous
Jan 26
Full
Feb 3
Last Quarter
Feb 10
New
Feb 17
First Quarter

Hourly Weather History & Observations

Time (EST) Temp. Windchill Dew Point Humidity Pressure Visibility Wind Dir Wind Speed Gust Speed Precip Events Conditions
12:14 AM 6.4 °F -7.3 °F -0.4 °F 74% 30.25 in 5.0 mi WSW 9.2 mph - N/A Snow Light Snow
12:35 AM 6.6 °F -5.0 °F 0.7 °F 77% 30.24 in 3.0 mi WSW 6.9 mph - N/A Snow Light Snow
12:54 AM 6.6 °F -3.7 °F 1.4 °F 79% 30.24 in 2.5 mi WSW 5.8 mph - N/A Snow Light Snow
1:15 AM 6.4 °F -5.2 °F 1.9 °F 82% 30.24 in 2.0 mi WSW 6.9 mph - N/A Snow Light Snow
1:35 AM 6.4 °F -5.2 °F 2.1 °F 82% 30.24 in 1.8 mi WSW 6.9 mph - N/A Snow Light Snow
1:54 AM 5.9 °F -4.5 °F 1.6 °F 82% 30.24 in 3.0 mi West 5.8 mph - N/A Snow Light Snow
2:15 AM 5.9 °F -3.0 °F 2.1 °F 84% 30.23 in 1.2 mi West 4.6 mph - N/A Snow Snow
2:35 AM 6.4 °F - 2.3 °F 83% 30.24 in 1.0 mi Calm Calm - N/A Snow Snow
2:54 AM 6.8 °F -0.1 °F 2.3 °F 82% 30.24 in 1.5 mi West 3.5 mph - N/A Snow Light Snow
3:15 AM 7.3 °F - 3.0 °F 82% 30.24 in 1.5 mi Calm Calm - N/A Snow Light Snow
3:35 AM 7.2 °F 0.3 °F 3.0 °F 83% 30.24 in 1.0 mi West 3.5 mph - N/A Snow Snow
3:54 AM 7.0 °F - 3.0 °F 84% 30.25 in 1.2 mi Calm Calm - N/A Snow Snow
4:15 AM 6.8 °F - 3.0 °F 84% 30.24 in 1.2 mi Calm Calm - N/A Snow Snow
4:35 AM 6.8 °F - 3.0 °F 84% 30.23 in 1.5 mi Calm Calm - N/A Snow Light Snow
4:54 AM 6.3 °F - 2.3 °F 84% 30.23 in 1.5 mi Calm Calm - N/A Snow Light Snow
5:15 AM 6.3 °F - 2.3 °F 84% 30.23 in 1.5 mi Calm Calm - N/A Snow Light Snow
5:35 AM 6.3 °F - 2.7 °F 85% 30.22 in 2.0 mi Calm Calm - N/A Snow Light Snow
5:54 AM 6.1 °F - 2.3 °F 84% 30.22 in 1.8 mi Calm Calm - N/A Snow Light Snow
6:15 AM 6.6 °F - 2.8 °F 84% 30.22 in 3.0 mi Calm Calm - N/A Snow Light Snow
6:34 AM 7.0 °F -1.7 °F 3.0 °F 84% 30.22 in 2.0 mi SW 4.6 mph - N/A Snow Light Snow
6:54 AM 7.3 °F 0.5 °F 2.8 °F 82% 30.22 in 5.0 mi SW 3.5 mph - N/A Snow Light Snow
7:15 AM 7.7 °F -0.9 °F 2.1 °F 78% 30.22 in 7.0 mi SW 4.6 mph - N/A Snow Light Snow
7:34 AM 8.1 °F -2.0 °F 1.8 °F 75% 30.22 in 7.0 mi SW 5.8 mph - N/A Snow Light Snow
7:54 AM 8.4 °F -1.6 °F 1.9 °F 75% 30.21 in 7.0 mi SW 5.8 mph - N/A Snow Light Snow
8:15 AM 8.6 °F -1.3 °F 2.1 °F 75% 30.21 in 10.0 mi SW 5.8 mph - N/A   Overcast
8:34 AM 9.1 °F -1.9 °F 2.5 °F 74% 30.20 in 10.0 mi SW 6.9 mph - N/A   Overcast
8:55 AM 10.0 °F -1.9 °F 2.5 °F 72% 30.19 in 10.0 mi SW 8.1 mph - N/A   Overcast
9:15 AM 10.4 °F -1.5 °F 2.3 °F 70% 30.20 in 10.0 mi SW 8.1 mph - N/A   Overcast
9:34 AM 11.1 °F -1.6 °F 2.3 °F 68% 30.20 in 10.0 mi SW 9.2 mph 16.1 mph N/A   Overcast
9:55 AM 11.3 °F -2.2 °F 1.8 °F 66% 30.20 in 10.0 mi SW 10.4 mph 18.4 mph N/A   Overcast
10:15 AM 12.2 °F -1.0 °F 2.1 °F 64% 30.20 in 10.0 mi WSW 10.4 mph 16.1 mph N/A   Overcast
10:34 AM 12.2 °F -2.5 °F 1.8 °F 63% 30.20 in 10.0 mi SW 12.7 mph 20.7 mph N/A   Overcast
10:55 AM 13.1 °F 0.1 °F 2.7 °F 63% 30.20 in 10.0 mi SW 10.4 mph - N/A   Overcast
11:15 AM 13.6 °F 0.0 °F 2.8 °F 62% 30.20 in 10.0 mi WSW 11.5 mph 17.3 mph N/A   Overcast
11:34 AM 14.4 °F 0.9 °F 3.7 °F 63% 30.20 in 10.0 mi WSW 11.5 mph - N/A   Overcast
11:55 AM 14.5 °F 1.1 °F 2.8 °F 60% 30.19 in 10.0 mi WSW 11.5 mph 17.3 mph N/A   Overcast
12:14 PM 14.9 °F 0.9 °F 2.7 °F 58% 30.18 in 10.0 mi SW 12.7 mph - N/A   Overcast
12:35 PM 14.9 °F 2.3 °F 2.7 °F 58% 30.16 in 10.0 mi SW 10.4 mph - N/A   Overcast
12:55 PM 15.6 °F 3.2 °F 4.3 °F 61% 30.15 in 10.0 mi WSW 10.4 mph 17.3 mph N/A   Overcast
1:14 PM 15.4 °F 1.6 °F 4.6 °F 62% 30.14 in 7.0 mi WSW 12.7 mph 18.4 mph N/A   Overcast
1:35 PM 15.4 °F 3.0 °F 4.6 °F 62% 30.13 in 7.0 mi SW 10.4 mph 16.1 mph N/A   Overcast
1:55 PM 15.8 °F 5.1 °F 4.8 °F 62% 30.11 in 7.0 mi SW 8.1 mph - N/A   Overcast
2:14 PM 15.8 °F 2.7 °F 5.7 °F 64% 30.10 in 7.0 mi WSW 11.5 mph - N/A   Overcast
2:35 PM 15.8 °F 2.7 °F 5.4 °F 63% 30.10 in 7.0 mi SW 11.5 mph 17.3 mph N/A   Overcast
2:54 PM 15.8 °F 2.7 °F 5.9 °F 65% 30.10 in 7.0 mi SW 11.5 mph - N/A   Overcast
3:14 PM 15.8 °F 4.2 °F 6.3 °F 66% 30.09 in 10.0 mi WSW 9.2 mph - N/A   Overcast
3:35 PM 16.0 °F 4.4 °F 6.8 °F 67% 30.09 in 7.0 mi SW 9.2 mph - N/A   Overcast
3:54 PM 15.8 °F 4.2 °F 7.3 °F 69% 30.08 in 5.0 mi SW 9.2 mph - N/A   Haze
4:14 PM 15.4 °F 3.8 °F 7.7 °F 71% 30.08 in 4.0 mi SW 9.2 mph 16.1 mph N/A Snow Light Snow
4:34 PM 15.3 °F 2.8 °F 7.5 °F 71% 30.07 in 5.0 mi SW 10.4 mph - N/A   Haze
4:54 PM 14.5 °F 3.6 °F 6.4 °F 70% 30.06 in 10.0 mi SW 8.1 mph - N/A   Overcast
5:15 PM 14.0 °F 2.9 °F 7.2 °F 74% 30.06 in 5.0 mi SW 8.1 mph - N/A   Haze
5:34 PM 13.3 °F 3.0 °F 7.3 °F 77% 30.05 in 7.0 mi SW 6.9 mph - N/A   Scattered Clouds
5:54 PM 12.7 °F 2.4 °F 7.2 °F 78% 30.05 in 7.0 mi SW 6.9 mph - N/A   Clear
6:14 PM 13.3 °F 2.0 °F 8.1 °F 80% 30.05 in 7.0 mi SW 8.1 mph - N/A   Mostly Cloudy
6:34 PM 14.0 °F 5.1 °F 9.1 °F 81% 30.05 in 10.0 mi SW 5.8 mph - N/A   Overcast
6:54 PM 14.4 °F 4.3 °F 9.5 °F 81% 30.05 in 10.0 mi SW 6.9 mph - N/A   Overcast
7:14 PM 14.2 °F 5.3 °F 9.5 °F 82% 30.04 in 7.0 mi SW 5.8 mph - N/A   Overcast
7:35 PM 13.6 °F 4.6 °F 9.5 °F 84% 30.04 in 10.0 mi SSW 5.8 mph - N/A   Overcast
7:54 PM 14.2 °F 5.3 °F 10.2 °F 84% 30.03 in 5.0 mi SSW 5.8 mph - N/A Snow Light Snow
8:14 PM 14.9 °F 4.0 °F 11.1 °F 85% 30.02 in 4.0 mi SSW 8.1 mph - N/A Snow Light Snow
8:35 PM 15.4 °F 5.6 °F 11.8 °F 86% 30.02 in 1.8 mi SW 6.9 mph - N/A Snow Light Snow
8:54 PM 15.6 °F 4.9 °F 12.2 °F 86% 30.02 in 1.8 mi SW 8.1 mph - N/A Snow Light Snow
9:14 PM 15.8 °F 5.1 °F 12.7 °F 88% 30.02 in 1.2 mi WSW 8.1 mph - N/A Snow Light Snow
9:35 PM 16.2 °F 3.9 °F 12.9 °F 87% 30.02 in 1.8 mi WSW 10.4 mph - N/A Snow Light Snow
9:54 PM 16.5 °F 5.1 °F 13.1 °F 86% 30.03 in 1.8 mi WSW 9.2 mph - N/A Snow Light Snow
10:14 PM 16.7 °F 4.5 °F 13.8 °F 88% 30.03 in 1.2 mi West 10.4 mph - N/A Snow Light Snow
10:35 PM 17.1 °F 3.6 °F 13.6 °F 86% 30.04 in 2.0 mi WNW 12.7 mph 19.6 mph N/A Snow Light Snow
10:54 PM 16.7 °F 0.1 °F 12.4 °F 83% 30.06 in 2.5 mi NNW 19.6 mph 24.2 mph N/A Snow Light Snow
11:15 PM 15.6 °F 0.1 °F 10.4 °F 80% 30.08 in 4.0 mi North 16.1 mph 20.7 mph N/A   Haze
11:35 PM 14.5 °F 1.1 °F 8.6 °F 77% 30.09 in 10.0 mi North 11.5 mph 18.4 mph N/A   Mostly Cloudy
11:54 PM 13.6 °F 0.0 °F 6.8 °F 74% 30.11 in 10.0 mi North 11.5 mph 18.4 mph N/A   Scattered Clouds